Weather Roundup
Issued by NWS Springfield, MO

Home | Current Version | Previous Version | Text Only | Print | Product List | Glossary On
Versions: 1 2 3 4 5 6 7 8 9 10 11 12 13 14 15 16 17 18 19 20 21 22 23 24 25 26 27 28 29 30 31 32 33 34 35 36 37 38 39 40 41 42 43 44 45 46 47 48 49 50
551
NZUS99 KSGF 260107
HRRSGF

HOURLY WEATHER
NATIONAL WEATHER SERVICE SPRINGFIELD MO
800 PM CDT WED APR 25 2018

......SGF CWA......

CITY           SKY/WX    TMP DP  RH WIND       PRES   REMARKS
SPRINGFIELD    LGT RAIN  52  50  93 N7        29.98S FOG
JOPLIN         LGT RAIN  52  51  97 CALM      29.98F
WEST PLAINS    CLOUDY    54  51  90 N5        29.98F
ROLLA          LGT RAIN  50  48  93 NW7       30.00F FOG
OSAGE BEACH    LGT RAIN  50  49  96 CALM      30.02F FOG
BRANSON        CLOUDY    50  50 100 CALM      29.99S FOG

......SURROUNDING SGF CWA......

CITY           SKY/WX    TMP DP  RH WIND       PRES   REMARKS
CHANUTE        CLOUDY    51  48  89 N13       30.03S
PARSONS        CLOUDY    51  49  92 N10       30.03R
COFFEYVILLE    CLOUDY    52  49  89 NW13      30.02R
EMPORIA        CLOUDY    47  45  93 N8        30.06F
GROVE OK       DRIZZLE   52  50  93 W6        30.01R
ROGERS AR      RAIN      52  50  93 NW7       29.99S
SILOAM SPRINGS LGT RAIN  50  49  96 W9        30.00S
HARRISON AR    LGT RAIN  51  51 100 NE3       29.98S FOG
NEAR YELLVILLE LGT RAIN  53  53 100 CALM      29.98F FOG

......KANSAS AND MISSOURI......

CITY           SKY/WX    TMP DP  RH WIND       PRES   REMARKS
KANSAS CTY INT MOCLDY    49  46  90 NW3       30.04F
DOWNTOWN KC    CLOUDY    52  47  83 N3        30.04F
COLUMBIA       LGT RAIN  52  48  86 NW6       30.01F
SEDALIA        LGT RAIN  50  50 100 NW5       30.03F
ST JOSEPH      CLOUDY    52  41  66 N3        30.06F
ST LOUIS       CLOUDY    61  49  64 NW6       29.96F
SPIRIT OF STL  CLOUDY    60  50  69 W5        29.96S
KIRKSVILLE     CLOUDY    51  48  89 W6        30.01F
WICHITA        MOCLDY    48  44  86 N10       30.09F
TOPEKA         CLOUDY    50  48  93 NW5       30.07S
OLATHE         CLOUDY    48  48 100 N7        30.04S

......TENNESSEE......

CITY           SKY/WX    TMP DP  RH WIND       PRES   REMARKS
MEMPHIS        CLOUDY    62  46  55 E5        29.95F
NASHVILLE      CLOUDY    66  49  54 CALM      29.95R

......ARKANSAS.......

CITY           SKY/WX    TMP DP  RH WIND       PRES   REMARKS
FAYETTEVILLE   LGT RAIN  51  50  96 W8        29.98S FOG
FT SMITH       LGT RAIN  54  52  93 W14       30.01R
LITTLE ROCK    LGT RAIN  54  54 100 NW8       29.97S FOG

......OKLAHOMA.......

CITY           SKY/WX    TMP DP  RH WIND       PRES   REMARKS
TULSA          CLOUDY    51  45  79 NW16      30.04S
PONCA CITY     CLOUDY    50  41  71 N13G22    30.09S
MCALESTER      CLOUDY    51  47  86 W6        30.07S
OKLAHOMA CITY  CLOUDY    51  42  71 N12       30.09S

......IOWA............

CITY           SKY/WX    TMP DP  RH WIND       PRES   REMARKS
DES MOINES     PTCLDY    62  26  25 N6        30.01S
QUAD CITIES    FAIR      61  29  29 N3        29.98S

......ILLINOIS........

CITY           SKY/WX    TMP DP  RH WIND       PRES   REMARKS
QUINCY         CLOUDY    56  40  55 N7        29.99F
CHICAGO        FAIR      42  30  62 NE12      30.04S





USA.gov is the U.S. government's official web portal to all federal, state and local government web resources and services.